Showing default

R5-S2, 60207

Orbit data source: Space-Track

R5-S2, 60207 is a payload satellite owned by NASA JSC (US) in SSO that was launched on Thu, 04 Jul 2024 UTC via an FIREFLY ALPHA launch vehicle from the Air Force Western Test Range (AFWTR). Payloads include a variety of satellites, spacecraft, and rockets equipped with specific instruments for various scientific and technological missions. These include communications satellites like Starlink; space stations such as the ISS; scientific satellites like the Hubble; Earth observation satellites from companies like Planet Labs, Umbra, and HawkEye 360; GPS; miniature CubeSats for education and research; and military/defense satellites.

Loading next visibility...
R5-S2 details
Identifier
60207, 2024-125E
Orbit
SSO
Last TLE update16 hours ago
Origin
Flag of USNASA JSC (US)
ManufacturerNASA JSC
MissionOperational spacecraft
Bus & MotorCUBESAT 6U, Unknown motor
Mass10 kg wet, ~10 kg dry
Launch date (UTC)
2024-07-04 (6 months ago)
Launch vehicle
FIREFLY ALPHA
Launch site
Air Force Western Test Range (AFWTR)
Object type
Payload
Rocket body
Debris
Shape & HBRUnknown
Radar Cross SectionMedium (>0.1 m² and <1 m²)

Expand to show TLE details & history

TLE from 16 hours ago
0 R5-S2
1 60207U 24125E   24356.02795072  .00014856  00000-0  57337-3 0  9993
2 60207  97.2972 204.3463 0025034  22.6782 337.5557 15.26083276 25840
Epoch: 2024-12-21T00:40Z
Definitive object data (Epoch: 2024-12-21T00:40:14.942Z)
Latitude0.00002°
Longitude104.19904°
Altitude474.753 km
Speed7.637 km/s
True Right ascension13h 37m 23s
True Declination0° 00' 00"
Sunlit
Object was in daylight at TLE epoch
Visualization TLE readout
Latitude-5.61585°
Longitude105.55569°
Altitude476.003 km
Speed7.636 km/s
Apparent Right ascension10h 57m 13s
Apparent Declination-55° 54' 18"
Sunlit
Object is in daylight
Visualization observer readout
Local Sidereal Time15:25:25
Azimuth213.652° SW
Elevation-21.329°
Doppler factor1
Orbital elements
Apogee altitude501.667 km
Perigee altitude467.308 km
Semi-major axis6,862.625 km
Eccentricity0.0025034
Inclination97.2972°
RAAN204.3463°
Arg. of periapsis22.6782°
True anomaly337.44586°
Mean anomaly337.5557°
Eccentric anomaly337.50081°
Mean motion3.81775 °/min
BSTAR0.00057337
Orbital period94.3 mins
Loading maneuver chart data...
Loading historical data...
Loading historical data...
Loading historical data...
Loading historical data...
Loading historical data...
Loading historical data...
Loading historical data...

R5-S2 Visibility forecast

Observer location: undefined°, undefined

Span
Click to sort rows by Start time (UTC) header in descending order
Start Az.
Max El. time (UTC)
Max El. Az.
Max El.
End time (UTC)
End Az.
6 mins2024-12-22 02:24:58.285Z37.667° NE2024-12-22 02:27:58.285Z104.196° ESE26.468°2024-12-22 02:30:58.285Z159.862° S
4 mins2024-12-22 14:34:58.285Z207.318° SW2024-12-22 14:36:58.285Z280.938° WNW31.762°2024-12-22 14:38:58.285Z326.201° NNW
|